This is the latest recevied weather packets stored in our database for station/object VE4GLS. If no packets are shown the sender has not sent any weather packets the latest 10 day(s).
| Time | Temp. | Humidity | Pressure | Rain* | Wind** | Luminosity | Snow |
|---|---|---|---|---|---|---|---|
| 1777812195 | 2.78° C | 74% | 1005.9 hPa | 0 mm | - | - | - |
| 1777811593 | 1.67° C | 78% | 1006 hPa | 0 mm | - | - | - |
| 1777811555 | 1.67° C | 78% | 1006 hPa | 0 mm | - | - | - |
| 1777810993 | 0.56° C | 78% | 1006 hPa | 0 mm | - | - | - |
| 1777810655 | 0.56° C | 78% | 1006.1 hPa | 0 mm | - | - | - |
| 1777810393 | 0° C | 77% | 1006.1 hPa | 0 mm | - | - | - |
| 1777809793 | 0° C | 77% | 1006.1 hPa | 0 mm | - | - | - |
| 1777809755 | 0° C | 78% | 1006.1 hPa | 0 mm | - | - | - |
| 1777809194 | -0.56° C | 79% | 1006.1 hPa | 0 mm | - | - | - |
| 1777808856 | -1.11° C | 78% | 1006.1 hPa | 0 mm | - | - | - |
| 1777808594 | -1.11° C | 77% | 1006.1 hPa | 0 mm | - | - | - |
| 1777807994 | -0.56° C | 77% | 1006.2 hPa | 0 mm | - | - | - |
| 1777807955 | -0.56° C | 77% | 1006.2 hPa | 0 mm | - | - | - |
| 1777807394 | -0.56° C | 78% | 1006.2 hPa | 0 mm | - | - | - |
| 1777807054 | -1.11° C | 78% | 1006.2 hPa | 0 mm | - | - | - |
| 1777806794 | -1.11° C | 78% | 1006.2 hPa | 0 mm | - | - | - |
| 1777806193 | -0.56° C | 74% | 1006.3 hPa | 0 mm | - | - | - |
| 1777806156 | -0.56° C | 75% | 1006.3 hPa | 0 mm | - | - | - |
| 1777805594 | 0° C | 77% | 1006.4 hPa | 0 mm | - | - | - |
| 1777805256 | -0.56° C | 77% | 1006.4 hPa | 0 mm | - | - | - |
| 1777804993 | -0.56° C | 77% | 1006.4 hPa | 0 mm | - | - | - |
| 1777804394 | 0° C | 76% | 1006.4 hPa | 0 mm | - | - | - |
| 1777804354 | -0.56° C | 76% | 1006.4 hPa | 0 mm | - | - | - |
| 1777803794 | -0.56° C | 77% | 1006.6 hPa | 0 mm | - | - | - |
| 1777803455 | -0.56° C | 78% | 1006.7 hPa | 0 mm | - | - | - |
* Rain latest hour (hover to see other rain measurements)
** Current wind speed in m/s (hover to see current wind gust speed)